Weather History for Danville, KY

Change the Weather History Date:

Saturday, October 13, 2012

  Actual Average (KLEX) Record (KLEX)
Temperature  
Mean Temperature 57 °F 58 °F  
Max Temperature 75 °F 69 °F 88 °F (1935)
Min Temperature 39 °F 47 °F 26 °F (1988)
Degree Days  
Heating Degree Days 8 8  
Month to date heating degree days 83  
Since 1 July heating degree days 137  
Cooling Degree Days 0 1  
Month to date cooling degree days 17  
Year to date cooling degree days 1180  
Growing Degree Days 7 (Base 50)    
Moisture  
Dew Point 50 °F    
Average Humidity 78    
Maximum Humidity 100    
Minimum Humidity 50    
Precipitation  
Precipitation 0.00 in 0.09 in 1.87 in (1983)
Month to date precipitation 1.26  
Year to date precipitation 35.84  
Snow  
Snow 0.00 in 0.00 in 0.00 in ()
Month to date snowfall 0.0  
Since 1 July snowfall 0.0  
Since 1 September snowfall 0.0  
Snow Depth -    
Sea Level Pressure  
Sea Level Pressure 30.23 in    
Wind  
Wind Speed 5 mph (SSW)    
Max Wind Speed 17 mph    
Max Gust Speed 22 mph    
Visibility 9 miles    
Events      
T = Trace of Precipitation, MM = Missing Value Source: NWS Daily Summary

Daily Weather History Graph

Daily Weather History Graph

Search for Another Location

Airport:

Trip Planner

Search our weather history database for the weather conditions in past years. The results will help you decide how hot, cold, wet, or windy it might be!

Date:

Astronomy

Oct. 13, 2012 Rise Set
Actual Time 7:45 AM EDT 7:03 PM EDT
Civil Twilight 7:19 AM EDT 7:30 PM EDT
Nautical Twilight 6:49 AM EDT 8:00 PM EDT
Astronomical Twilight 6:18 AM EDT 8:30 PM EDT
Moon 5:36 AM EDT (10/13) 5:46 PM EDT (10/13)
Length of Visible Light 12h 10m
Length of Day
11h 18m
Waning Crescent, 5% of the Moon is Illuminated
Oct 13
Waning Crescent
Oct 15
New
Oct 21
First Quarter
Oct 29
Full
Nov 6
Last Quarter

Hourly Weather History & Observations

Time (EDT) Temp. Windchill Dew Point Humidity Pressure Visibility Wind Dir Wind Speed Gust Speed Precip Events Conditions
12:15 AM 42.8 °F 41.1 °F 42.8 °F 100% 30.33 in 10.0 mi East 3.5 mph - N/A   Clear
12:35 AM 44.6 °F 43.1 °F 42.8 °F 93% 30.33 in 10.0 mi East 3.5 mph - N/A   Clear
12:55 AM 48.2 °F - 42.8 °F 82% 30.32 in 10.0 mi East 4.6 mph - N/A   Clear
1:55 AM 42.8 °F - 41.0 °F 93% 30.31 in 10.0 mi Calm Calm - N/A   Clear
2:15 AM 42.8 °F - 41.0 °F 93% 30.31 in 10.0 mi Calm Calm - N/A   Clear
2:35 AM 41.0 °F - 41.0 °F 100% 30.31 in 10.0 mi Calm Calm - N/A   Clear
2:55 AM 42.8 °F - 41.0 °F 93% 30.31 in 10.0 mi Calm Calm - N/A   Clear
3:15 AM 41.0 °F - 41.0 °F 100% 30.31 in 10.0 mi Calm Calm - N/A   Clear
3:35 AM 41.0 °F - 41.0 °F 100% 30.30 in 7.0 mi Calm Calm - N/A   Clear
3:55 AM 41.0 °F 39.0 °F 41.0 °F 100% 30.29 in 10.0 mi South 3.5 mph - N/A   Clear
4:35 AM 41.0 °F - 39.2 °F 93% 30.30 in 10.0 mi Calm Calm - N/A   Clear
4:55 AM 39.2 °F - 39.2 °F 100% 30.30 in 7.0 mi Calm Calm - N/A   Clear
5:15 AM 41.0 °F - 41.0 °F 100% 30.29 in 4.0 mi Calm Calm - N/A   Clear
5:35 AM 41.0 °F - 41.0 °F 100% 30.29 in 7.0 mi Calm Calm - N/A   Clear
5:55 AM 41.0 °F 39.0 °F 41.0 °F 100% 30.29 in 7.0 mi South 3.5 mph - N/A   Clear
6:15 AM 41.0 °F - 39.2 °F 93% 30.29 in 10.0 mi Calm Calm - N/A   Clear
6:35 AM 41.0 °F - 41.0 °F 100% 30.28 in 4.0 mi Calm Calm - N/A   Clear
6:55 AM 39.2 °F - 37.4 °F 93% 30.28 in 7.0 mi Calm Calm - N/A   Clear
7:15 AM 41.0 °F - 41.0 °F 100% 30.29 in 10.0 mi Calm Calm - N/A   Clear
7:35 AM 41.0 °F - 41.0 °F 100% 30.28 in 5.0 mi Calm Calm - N/A   Clear
7:55 AM 41.0 °F 38.0 °F 41.0 °F 100% 30.27 in 3.0 mi SSE 4.6 mph - N/A   Clear
8:15 AM 41.0 °F 38.0 °F 41.0 °F 100% 30.28 in 2.5 mi South 4.6 mph - N/A   Clear
8:35 AM 42.8 °F 40.1 °F 42.8 °F 100% 30.28 in 10.0 mi SSW 4.6 mph - N/A   Clear
8:55 AM 46.4 °F 44.3 °F 44.6 °F 93% 30.28 in 10.0 mi SSW 4.6 mph - N/A   Clear
9:15 AM 48.2 °F - 44.6 °F 87% 30.28 in 10.0 mi SSW 4.6 mph - N/A   Clear
9:55 AM 53.6 °F - 46.4 °F 77% 30.28 in 10.0 mi SSW 5.8 mph - N/A   Clear
10:35 AM 59.0 °F - 50.0 °F 72% 30.28 in 10.0 mi South 10.4 mph - N/A   Clear
10:55 AM 60.8 °F - 50.0 °F 68% 30.27 in 10.0 mi SSW 6.9 mph - N/A   Clear
11:15 AM 62.6 °F - 51.8 °F 68% 30.27 in 10.0 mi SSW 10.4 mph - N/A   Clear
11:35 AM 64.4 °F - 53.6 °F 68% 30.27 in 10.0 mi SSW 8.1 mph - N/A   Clear
11:55 AM 66.2 °F - 53.6 °F 64% 30.26 in 10.0 mi SW 12.7 mph 16.1 mph N/A   Clear
12:15 PM 68.0 °F - 53.6 °F 60% 30.25 in 10.0 mi SSW 13.8 mph - N/A   Clear
12:35 PM 69.8 °F - 55.4 °F 60% 30.24 in 10.0 mi SSW 15.0 mph 20.7 mph N/A   Clear
12:55 PM 69.8 °F - 55.4 °F 60% 30.23 in 10.0 mi SSW 16.1 mph 21.9 mph N/A   Clear
1:15 PM 69.8 °F - 55.4 °F 60% 30.23 in 10.0 mi SW 17.3 mph 20.7 mph N/A   Clear
1:35 PM 71.6 °F - 55.4 °F 57% 30.23 in 10.0 mi SW 15.0 mph 20.7 mph N/A   Clear
1:55 PM 71.6 °F - 55.4 °F 57% 30.22 in 10.0 mi SW 15.0 mph 20.7 mph N/A   Clear
2:15 PM 73.4 °F - 55.4 °F 53% 30.21 in 10.0 mi SSW 11.5 mph - N/A   Scattered Clouds
2:35 PM 75.2 °F - 55.4 °F 50% 30.20 in 10.0 mi SW 12.7 mph 21.9 mph N/A   Mostly Cloudy
2:55 PM 73.4 °F - 55.4 °F 53% 30.19 in 10.0 mi SSW 13.8 mph - N/A   Mostly Cloudy
3:15 PM 71.6 °F - 55.4 °F 57% 30.18 in 10.0 mi SW 12.7 mph 18.4 mph N/A   Mostly Cloudy
3:35 PM 73.4 °F - 57.2 °F 57% 30.17 in 10.0 mi SW 8.1 mph - N/A   Overcast
3:55 PM 73.4 °F - 57.2 °F 57% 30.16 in 10.0 mi SW 10.4 mph 17.3 mph N/A   Overcast
4:15 PM 73.4 °F - 57.2 °F 57% 30.16 in 10.0 mi SSW 12.7 mph 20.7 mph N/A   Overcast
4:35 PM 73.4 °F - 57.2 °F 57% 30.16 in 10.0 mi SW 10.4 mph - N/A   Overcast
4:55 PM 71.6 °F - 59.0 °F 64% 30.16 in 10.0 mi SW 10.4 mph - N/A   Overcast
5:15 PM 71.6 °F - 57.2 °F 60% 30.16 in 10.0 mi SW 8.1 mph - N/A   Overcast
5:35 PM 71.6 °F - 57.2 °F 60% 30.16 in 10.0 mi SW 9.2 mph - N/A   Overcast
5:55 PM 71.6 °F - 57.2 °F 60% 30.15 in 10.0 mi SSW 8.1 mph - N/A   Overcast
6:15 PM 71.6 °F - 59.0 °F 64% 30.15 in 10.0 mi SSW 5.8 mph - N/A   Mostly Cloudy
6:35 PM 69.8 °F - 59.0 °F 68% 30.15 in 10.0 mi SSW 5.8 mph - N/A   Scattered Clouds
6:55 PM 68.0 °F - 57.2 °F 68% 30.15 in 10.0 mi SSW 3.5 mph - N/A   Mostly Cloudy
7:15 PM 68.0 °F - 57.2 °F 68% 30.15 in 10.0 mi SSW 4.6 mph - N/A   Mostly Cloudy
7:35 PM 68.0 °F - 57.2 °F 68% 30.16 in 10.0 mi Calm Calm - N/A   Overcast
8:15 PM 64.4 °F - 57.2 °F 77% 30.15 in 10.0 mi South 4.6 mph - N/A   Scattered Clouds
8:35 PM 64.4 °F - 57.2 °F 77% 30.15 in 10.0 mi South 5.8 mph - N/A   Mostly Cloudy
8:55 PM 64.4 °F - 57.2 °F 77% 30.15 in 10.0 mi South 4.6 mph - N/A   Mostly Cloudy
9:35 PM 64.4 °F - 57.2 °F 77% 30.13 in 10.0 mi South 6.9 mph - N/A   Scattered Clouds
9:55 PM 64.4 °F - 57.2 °F 77% 30.13 in 10.0 mi South 8.1 mph - N/A   Scattered Clouds
10:15 PM 64.4 °F - 57.2 °F 77% 30.13 in 10.0 mi SSW 10.4 mph - N/A   Scattered Clouds
10:35 PM 64.4 °F - 55.4 °F 73% 30.13 in 10.0 mi SSW 9.2 mph - N/A   Mostly Cloudy
10:55 PM 64.4 °F - 55.4 °F 73% 30.12 in 10.0 mi SSW 9.2 mph - N/A   Overcast
11:15 PM 64.4 °F - 55.4 °F 73% 30.12 in 10.0 mi SSW 9.2 mph - N/A   Scattered Clouds